Regional Weather Roundup
Issued by NWS

Home | Current Version | Previous Version | Text Only | Print | Product List | Glossary On
Versions: 1 2 3 4 5 6 7 8 9 10 11 12 13 14 15 16 17 18 19 20 21 22 23 24 25 26 27 28
000
ASUS46 KSEW 192310
RWRWA

WASHINGTON REGIONAL WEATHER ROUNDUP
NATIONAL WEATHER SERVICE SEATTLE WA
400 PM PDT SAT APR 19 2014

NOTE:"FAIR" INDICATES FEW OR NO CLOUDS BELOW 12,000 FEET WITH NO
SIGNIFICANT WEATHER AND/OR OBSTRUCTIONS TO VISIBILITY.

WAZ505-507>509-200000-
SEATTLE, TACOMA, EVERETT, AND VICINITY

CITY           SKY/WX    TMP DP  RH WIND       PRES   REMARKS
EVERETT        CLOUDY    50  45  83 S17       29.90S
BOEING FIELD   LGT RAIN  55  46  71 S9G22     29.93R
RENTON         CLOUDY    54  49  83 S3        29.92R
SEATAC AIRPORT CLOUDY    52  46  80 SW13G18   29.93R
JBLM-MCCHORD   CLOUDY    54  46  76 S17G24    29.94R
PUYALLUP         N/A     54  45  71 SW9G16    29.95R
JBLM-FT LEWIS  LGT RAIN  53  47  82 S17G24    29.93R
TACOMA NARROWS CLOUDY    50  46  86 SW14G24   29.94R FOG
$$

WAZ001-503-506-510-514-515-200000-
NORTH INTERIOR

CITY           SKY/WX    TMP DP  RH WIND       PRES   REMARKS
BELLINGHAM     CLOUDY    51  42  71 S16G30    29.87R
FRIDAY HARBOR  PTSUNNY   50  44  80 SE18G25   29.87R
EASTSOUND      PTSUNNY   50  45  81 S13G24    29.84R
PORT ANGELES   CLOUDY    51  41  68 CALM      29.86R
NAS WHIDBEY    PTSUNNY   54  44  69 SE25G37   29.88R
BURLINGTON     CLOUDY    52  45  76 SE14G25   29.90S
$$

WAZ020-022-039-040-504-511-512-200000-
SOUTHWEST INTERIOR

CITY           SKY/WX    TMP DP  RH WIND       PRES   REMARKS
SHELTON        LGT RAIN  50  47  89 SW20G25   29.91R FOG
OLYMPIA        HVY RAIN  50  47  89 W13G21    29.95R
CHEHALIS       MOCLDY    54  48  82 SW8G16    29.99R
KELSO          PTSUNNY   55  46  71 S8G17     30.05R
VANCOUVER      LGT RAIN  54  45  71 SW9G24    30.05R
SCAPPOOSE, OR  CLOUDY    57  48  72 W12G22    30.02R
PORTLAND, OR   CLOUDY    56  47  71 W22G29    30.06R
$$

WAZ021-516-517-200000-
WASHINGTON COAST

CITY           SKY/WX    TMP DP  RH WIND       PRES   REMARKS
FORKS          LGT RAIN  50  49  96 SW8       29.90R FOG
HOQUIAM        LGT RAIN  50  47  89 SW21      29.97R FOG
ASTORIA, OR    LGT RAIN  53  47  79 SW16G23   30.01R
$$

WAZ019-023-024-040-518-519-200000-
CASCADE MOUNTAINS AND COLUMBIA GORGE

CITY           SKY/WX    TMP DP  RH WIND       PRES   REMARKS
STAMPEDE PASS  NOT AVBL
TROUTDALE, OR  LGT RAIN  56  48  74 W21G30    30.04R
THE DALLES, OR MOSUNNY   63  40  42 W31G44    29.95R
$$

WAZ026-027-041>044-520-521-200000-
EAST SLOPES

CITY           SKY/WX    TMP DP  RH WIND       PRES   REMARKS
OMAK           CLOUDY    61  27  27 S12       29.81S
WENATCHEE      CLOUDY    63  28  26 NW8       29.83S
ELLENSBURG     PTSUNNY   61  38  42 NW8       29.85S
YAKIMA         PTSUNNY   64  37  36 SW22G36   29.86R
$$

WAZ028-034-035-200000-
COLUMBIA BASIN

CITY           SKY/WX    TMP DP  RH WIND       PRES   REMARKS
EPHRATA        CLOUDY    62  30  29 SW20      29.84S
MOSES LAKE     PTSUNNY   64  31  28 SW17      29.84F
HANFORD        NOT AVBL
PASCO          PTSUNNY   66  35  31 W20G30    29.89R
HERMISTON, OR  PTSUNNY   64  39  39 W20G28    29.91R
$$

WAZ036>038-200000-
NORTHEAST WASHINGTON

CITY           SKY/WX    TMP DP  RH WIND       PRES   REMARKS
SPOKANE GEIGER PTSUNNY   62  25  24 S17G24    29.82F
SPOKANE FELTS  PTSUNNY   64  29  26 SW12      29.82F
FAIRCHILD AFB  MOSUNNY   61  29  29 SW16G23   29.83S
COEURDALENE,ID PTSUNNY   63  36  36 SW16G22   29.83S
DEER PARK      PTSUNNY   62  33  33 SE10      29.81F
$$

WAZ029>033-200000-
SOUTHEAST WASHINGTON

CITY           SKY/WX    TMP DP  RH WIND       PRES   REMARKS
PULLMAN        CLOUDY    59  28  30 W15G21    29.89R
LEWISTON, ID   MOSUNNY   68  22  17 NW15      29.83S
WALLA WALLA    PTSUNNY   64  34  32 SW12G20   29.90R
PENDLETON, OR  PTSUNNY   64  36  35 NW17      29.90R
$$



USA.gov is the U.S. government's official web portal to all federal, state and local government web resources and services.